Regional Weather Roundup
Issued by NWS

Home | Current Version | Previous Version | Text Only | Print | Product List | Glossary Off
Versions: 1 2 3 4 5 6 7 8 9 10 11 12 13 14 15 16 17 18 19 20 21 22 23 24 25 26 27 28 29 30 31 32 33 34 35 36 37 38 39 40 41 42 43 44 45 46 47 48 49 50

000
ASUS43 KMPX 010101
RWRMN
WEATHER ROUNDUP FOR MINNESOTA
NATIONAL WEATHER SERVICE TWIN CITIES/CHANHASSEN MN
800 PM CDT SUN AUG 31 2014


NOTE: "FAIR" INDICATES FEW OR NO CLOUDS BELOW 12,000 FEET WITH NO
SIGNIFICANT WEATHER AND/OR OBSTRUCTIONS TO VISIBILITY. N/A MEANS
CURRENT SKY AND/OR WEATHER CONDITIONS ARE NOT AVAILABLE.

MNZ060>063-068>070-010200-
   Twin Cities Metro

CITY           SKY/WX    TMP DP  RH WIND       PRES   REMARKS
TWIN CITIES    MOCLDY    78  67  68 SW15      29.62F
ST PAUL        MOCLDY    78  68  71 SW15      29.61F
CRYSTAL        MOCLDY    79  66  64 SW14      29.61F
LAKEVILLE      CLOUDY    73  64  73 SW9       29.64F
EDEN PRAIRIE   MOCLDY    76  68  76 SW13G18   29.62F
SOUTH ST PAUL  MOCLDY    78  67  69 SW10      29.61F
LAKE ELMO      MOCLDY    79  68  69 SW20      29.63F
$$
MNZ001>005-007-008-013>017-022>024-027-028-010200-
   Northwest Minnesota

CITY           SKY/WX    TMP DP  RH WIND       PRES   REMARKS
BEMIDJI        CLOUDY    65  62  88 SW6       29.60F
HALLOCK        MOCLDY    66  63  88 NW3       29.60R
ROSEAU         MOCLDY    64  61  88 W12G17    29.58R
WARROAD        CLOUDY    64  61  88 W12       29.57R
THIEF RVR FALL MOCLDY    66  61  82 W6        29.59F
CROOKSTON      MOCLDY    66  61  82 NW9       29.59F
FOSSTON        MOCLDY    64  61  88 W3        29.60F
DETROIT LAKES  PTCLDY    66  63  88 CALM      29.64R
MOORHEAD       MOCLDY    70  66  88 W7        29.61S
PARK RAPIDS    MOCLDY    65  62  90 W6        29.62F
MAHNOMEN       FAIR      64  61  90 W6        29.60F
$$
MNZ006-009>011-018-025>026-010200-
   North Central Minnesota

CITY           SKY/WX    TMP DP  RH WIND       PRES   REMARKS
BAUDETTE       CLOUDY    65  62  90 W6        29.56S
FLAG ISLAND    MOCLDY    64  63  94 W10       29.52S
INTL FALLS     MOCLDY    65  63  93 W8        29.57F
WASKISH        MOCLDY    66  64  94 SW8       29.59S
BIG FORK       MOCLDY    68  63  83 CALM      29.61R
LONGVILLE      MOCLDY    66  63  88 W3        29.61F
GRAND RAPIDS   CLOUDY    70  64  83 W5        29.61S
CRANE LAKE     PTCLDY    64  61  88 CALM      29.60F
ORR            MOCLDY    66  63  88 S7        29.57F
COOK           MOCLDY    66  63  88 CALM      29.60F
WALKER         FAIR      65  62  90 CALM      29.61F
$$
MNZ012-019>021-037-010200-
   Northeast Minnesota

CITY           SKY/WX    TMP DP  RH WIND       PRES   REMARKS
ELY            MOCLDY    63  57  82 SE7       29.64F
HIBBING        LGT RAIN  68  64  87 SE3       29.62S
EVELETH        PTCLDY    64  61  88 CALM      29.63F
DULUTH HARBOR  MOCLDY    63  61  94 E7        29.62F
TWO HARBORS    MOCLDY    61  57  88 CALM      29.63F
SILVER BAY     MOCLDY    59  59 100 CALM      29.63F
GRAND MARAIS     N/A     64  57  78 NE10G16   29.67F
G MARAIS ARPRT MOCLDY    59  54  82 E6        29.72F
$$
MNZ029>031-032-039>041-046>048-054>057-064-010200-
   West Central Minnesota

CITY           SKY/WX    TMP DP  RH WIND       PRES   REMARKS
FERGUS FALLS   MOCLDY    68  63  83 CALM      29.62S
WHEATON        CLOUDY    66  63  88 NW3       29.64F
MORRIS         CLOUDY    70  66  88 W6        29.63F
ALEXANDRIA     PTCLDY    69  63  81 CALM      29.65F
ELBOW LAKE     CLOUDY    67  64  88 CALM      29.63F
WADENA         MOCLDY    66  63  88 CALM      29.63S
GLENWOOD       PTCLDY    70  63  78 CALM      29.65F
APPLETON       CLOUDY    70  64  83 CALM      29.62F
BENSON         LGT RAIN  70  66  88 NW3       29.63F
ORTONVILLE     CLOUDY    70  63  78 CALM      29.63F
MADISON        CLOUDY    70  66  88 CALM      29.62F
WILLMAR        FAIR      72  64  78 N5        29.64F
$$
MNZ033>034-036-042>043-049>051-058-059-010200-
   Central Minnesota

CITY           SKY/WX    TMP DP  RH WIND       PRES   REMARKS
ST CLOUD       CLOUDY    67  64  90 CALM      29.63F
SAUK CENTRE    MOCLDY    70  63  78 W7        29.65S
PAYNESVILLE    MOCLDY    68  62  79 SW8       29.64F
AITKIN         CLOUDY    68  63  83 NE3       29.62S THUNDER
PINE RIVER     CLOUDY    68  63  83 CALM      29.66F
BRAINERD       CLOUDY    69  64  84 W7        29.63F
STAPLES        CLOUDY    68  63  83 CALM      29.63S
LONG PRAIRIE   CLOUDY    70  63  78 SW3       29.65S
LITTLE FALLS   CLOUDY    68  64  88 CALM      29.64R
LITCHFIELD     CLOUDY    70  68  94 CALM      29.65R
BUFFALO        MOCLDY    73  62  68 NW9       29.66R
MAPLE LAKE     CLOUDY    69  66  89 SW10G16   29.69R
$$
MNZ037-044-045-052-053-010200-
   East Central Minnesota

CITY           SKY/WX    TMP DP  RH WIND       PRES   REMARKS
PRINCETON      MOCLDY    75  61  60 W22       29.65R
MORA           MOCLDY    73  64  73 SW7       29.63F
CAMBRIDGE      MOCLDY    79  64  61 SW6       29.60F
RUSH CITY      LGT RAIN  75  67  76 SW3       29.61F
MOOSE LAKE     MOCLDY    72  68  88 CALM      29.60S
HINCKLEY       FAIR      73  68  83 W6        29.60F
CLOQUET        MOCLDY    64  63  94 CALM      29.62F
MCGREGOR       CLOUDY    64  63  94 S5G20     29.63R THUNDER
$$
MNZ071>073-080-081-089-090-097-098-010200-
   Southwest Minnesota

CITY           SKY/WX    TMP DP  RH WIND       PRES   REMARKS
MONTEVIDEO     LGT RAIN  70  64  83 N7        29.61F
GRANITE FALLS  LGT RAIN  71  65  80 NW6       29.61F
CANBY          CLOUDY    67  65  93 S3        29.63F
MARSHALL       CLOUDY    72  63  73 NW5       29.61F
REDWOOD FALLS  TSTM      71  68  90 S12       29.66R
OLIVIA         CLOUDY    73  64  73 NW8       29.64R
PIPESTONE      LGT RAIN  70  63  78 N9        29.65F
WINDOM         TSTM      70  66  88 W13G20    29.67F
WORTHINGTON    CLOUDY    66  64  94 N3        29.66F
JACKSON        CLOUDY    68  64  88 S7        29.71F
TRACY          LGT RAIN  67  64  93 S8        29.65F
SLAYTON        LGT RAIN  65  64  97 CALM      29.66F
$$
MNZ065>067-074>077-082>085-091>093-010200-
   South Central Minnesota

CITY           SKY/WX    TMP DP  RH WIND       PRES   REMARKS
MANKATO        CLOUDY    70  63  78 S12G22    29.64F
NEW ULM        CLOUDY    73  70  88 SW10      29.66R
ST JAMES       TSTM      70  66  88 S8        29.69R
FAIRMONT       CLOUDY    66  59  77 S12G28    29.71R THUNDER
GLENCOE        CLOUDY    76  67  75 S7        29.63S
FARIBAULT      CLOUDY    75  61  60 S8G20     29.66F
OWATONNA       RAIN      70  63  78 S13       29.66F
WASECA         LGT RAIN  64  59  82 S8        29.67F
ALBERT LEA     LGT RAIN  66  64  94 CALM      29.68F
$$
MNZ078>079-086>088-094>096-010200-
   Southeast Minnesota

CITY           SKY/WX    TMP DP  RH WIND       PRES   REMARKS
ROCHESTER      LGT RAIN  70  64  81 SW8       29.72F
RED WING       CLOUDY    81  63  54 SW17G25   29.62F
STANTON        CLOUDY    75  63  67 S14G23    29.63F
DODGE CENTER   LGT RAIN  72  64  78 SW10      29.70F
WINONA         MOCLDY    70  64  83 SE6       29.73R THUNDER
AUSTIN         CLOUDY    68  64  88 S5        29.72R
PRESTON        CLOUDY    70  67  92 CALM      29.74F
$$
ABBREVIATIONS USED IN REMARKS
   TC - TEMPERATURES IN CELSIUS
  WCI - WIND CHILL INDEX
   HX - HEAT INDEX
  VSB - VISIBILITY
$$



USA.gov is the U.S. government's official web portal to all federal, state and local government web resources and services.